Location: Unspecified
(0.0000°N, 0.0000°E)
Time: 12:14:27
(UTC+00:00)

Hubble Space Telescope - Pass Details

Date: 11 December 2019
Orbit: 536 x 540 km, 28.5° (Epoch: 10 December)

Event Time Altitude Azimuth Distance (km) Brightness Sun altitude
Exits shadow 04:05:38 21° 34° (NE) 1,238 2.7 -24.6°
Drops below altitude 10° 04:07:09 10° 44° (NE) 1,781 3.6 -24.2°
Sets 04:09:28 0° 50° (NE) 2,670 4.6 -23.7°
